Retour au catalogue

COSMOS 886 DEB

ActifUNKNOWN
NORAD 9649·DEBRIS·🇷🇺 Russia

Lancé Dec 27, 1976 depuis Baikonur Cosmodrome

Loading…

Prochains Passages (prochaines 24 heures)

TLE

FraisSource: Space-Track

Époque: Sep 13, 2026, 23:00 UTC

1 09649U 76126F   26256.95901161  .00000051  00000-0  96403-4 0  9995
2 09649  65.9287  98.1547 0918994 242.4526 108.0235 12.71761851274243

Suivez COSMOS 886 DEB en temps réel avec AllMySat

Download on the App Store